[[{"header":{"parameterUnit":"m.s-1","parameterCategory":1,"la1":30.2991,"la2":30.254,"lo1":-89.0895,"lo2":-89.0444,"dy":0.0017,"dx":0.0017,"nx":28,"ny":28,"refTime":"2024-09-01T21:00:00:Z","depth":0,"parameterNumber":2,"parameterNumberName":"U-component_of_WINDS"},"data":[0,0,0,0,0,0,0,0,0,0,0,0,0,0,0,0,0,0,0,0,0,0,0,0,0,0,0,0,0,0,0,0,0,0,0,0,0,0,0,0,0,0,0,0,0,0,0,0,0,0,0,0,0,0,0,0,0,0,0.7719,0.7719,0,0.7671,0.767,0.767,0.7634,0.7634,0.7633,0.7633,0.7579,0.7578,0.7577,0,0,0,0,0,0,0,0,0,0,0,0,0,0.7778,0.7777,0.7719,0.7719,0.7718,0.7671,0.767,0.7669,0.7634,0.7634,0.7633,0.7633,0.758,0.7578,0.7577,0,0,0,0,0,0,0,0,0,0,0,0,0,0.7743,0.7777,0.7719,0.7695,0.7692,0.7671,0.767,0.7669,0.7634,0.7634,0.7633,0.7633,0.758,0.7578,0.7577,0.7575,0,0,0.7571,0.7571,0,0,0,0,0,0,0,0,0.7745,0.7741,0.7699,0.7696,0.7693,0.7658,0.7671,0.7637,0.7634,0.7656,0.7633,0.7633,0.7606,0.7602,0.7593,0.7572,0.757,0.7571,0.757,0.7569,0.7569,0,0,0,0,0,0,0,0.7747,0.7743,0.77,0.7698,0.7695,0.7685,0.768,0.7664,0.7634,0.7654,0.7651,0.7646,0.7604,0.7595,0.7592,0.7569,0.7571,0.757,0.7569,0.7568,0.7544,0.7544,0,0,0,0,0,0,0.7754,0.7745,0.7701,0.7698,0.7719,0.7684,0.7678,0.767,0.7634,0.7628,0.7647,0.7645,0.7598,0.7594,0.759,0.7585,0.7569,0.7568,0.7567,0.7544,0.7544,0.7545,0,0,0,0,0,0,0.7756,0.7751,0.7703,0.7721,0.7714,0.7684,0.7675,0.7669,0.766,0.7628,0.7622,0.7644,0.7598,0.7592,0.7579,0.7583,0.7567,0.7565,0.7543,0.7544,0.7544,0.7576,0,0,0,0,0,0,0.7757,0.7751,0.7751,0.7721,0.7714,0.7695,0.7675,0.7668,0.7658,0.7655,0.7624,0.7618,0.7597,0.7582,0.7577,0.758,0.7564,0.7543,0.7543,0.7544,0.7574,0.7577,0.758,0,0,0,0,0,0.776,0.7761,0.7751,0.7746,0.7713,0.7695,0.769,0.7667,0.7658,0.7657,0.7637,0.7619,0.7584,0.7581,0.7576,0.7578,0.7542,0.7543,0.7544,0.7573,0.7577,0.758,0,0,0,0,0,0,0.779,0.7757,0.7745,0.7737,0.772,0.7689,0.7687,0.7672,0.7655,0.7652,0.7623,0.7616,0.7606,0.7591,0.7588,0.7574,0.7561,0.756,0.7584,0.7588,0.7591,0.7594,0.7563,0,0,0,0,0,0.7796,0.7786,0.7757,0.7752,0.7744,0.7717,0.7708,0.7692,0.7672,0.7664,0.7642,0.7622,0.7606,0.7596,0.758,0.7572,0.7564,0.7571,0.7574,0.7576,0.7576,0.7571,0.7573,0.7547,0.7547,0.7547,0,0,0.7808,0.7788,0.7783,0.7758,0.7742,0.7731,0.7711,0.77,0.7691,0.7662,0.7648,0.7632,0.7607,0.7597,0.7591,0.7584,0.7582,0.7578,0.758,0.7578,0.7572,0.7574,0.7576,0.7548,0.7548,0.7548,0,0,0.7824,0.7808,0.7803,0.7788,0.7765,0.7747,0.7746,0.7718,0.7707,0.7693,0.7671,0.766,0.7633,0.7617,0.7605,0.7616,0.7599,0.7611,0.7626,0.7621,0.7623,0.7624,0.7627,0.7629,0.7611,0.7611,0.7612,0,0.7841,0.7824,0.7802,0.7792,0.7781,0.7757,0.775,0.7737,0.7709,0.7701,0.7694,0.7661,0.7642,0.7627,0.763,0.7622,0.7619,0.7614,0.7625,0.7626,0.7627,0.763,0.7631,0.7613,0.7613,0.7613,0.7613,0,0.7846,0.7835,0.7833,0.7809,0.7798,0.779,0.7766,0.7757,0.7742,0.7725,0.7712,0.7689,0.7668,0.7663,0.7648,0.7647,0.7643,0.763,0.7616,0.7631,0.7633,0.7634,0.7615,0.7615,0.7614,0.7614,0,0,0.7878,0.7843,0.7842,0.7831,0.7804,0.7795,0.7786,0.7767,0.7759,0.7742,0.7732,0.7711,0.77,0.7687,0.7669,0.7665,0.7675,0.7653,0.7652,0.7657,0.7671,0.7679,0.7681,0.7664,0.7664,0.7664,0.7672,0,0.7889,0.7872,0.7852,0.7842,0.7831,0.7808,0.78,0.7783,0.7767,0.7754,0.7736,0.7722,0.7708,0.77,0.7695,0.7675,0.7677,0.7674,0.7654,0.7653,0.766,0.7682,0.7691,0.77,0.7673,0.7673,0.7673,0,0.7898,0.7883,0.7873,0.7848,0.7843,0.7836,0.7817,0.7806,0.7785,0.7774,0.776,0.7742,0.773,0.7719,0.7702,0.77,0.7691,0.768,0.768,0.7676,0.7663,0.7678,0.7702,0.7703,0.7674,0.7674,0.7674,0,0.7922,0.7899,0.789,0.7881,0.7852,0.7847,0.7835,0.7814,0.7804,0.7787,0.778,0.7762,0.7751,0.7737,0.7714,0.7708,0.7699,0.7686,0.7688,0.7689,0.7686,0.7686,0.7708,0.7682,0.7682,0.7682,0.7682,0,0.7935,0.7929,0.79,0.7894,0.7887,0.7864,0.7857,0.7842,0.7824,0.7814,0.7793,0.7783,0.7755,0.7742,0.7724,0.7712,0.7708,0.7697,0.7692,0.7699,0.77,0.7691,0.7689,0.7683,0.7682,0.7682,0.7682,0,0.7959,0.7939,0.7928,0.7902,0.7895,0.7891,0.7868,0.7861,0.7845,0.7832,0.7828,0.7802,0.7786,0.7762,0.7739,0.7727,0.7717,0.771,0.7725,0.7721,0.7725,0.7724,0.7741,0.7742,0.7716,0.7717,0.7717,0,0.7968,0.7964,0.7938,0.7931,0.7919,0.7907,0.7898,0.7875,0.7865,0.7842,0.7838,0.782,0.7805,0.778,0.7758,0.774,0.7732,0.7739,0.7728,0.7735,0.773,0.7731,0.773,0.7741,0.7741,0.7741,0.7742,0,0.7987,0.7977,0.7965,0.7949,0.7938,0.7924,0.7909,0.7904,0.7878,0.7868,0.7852,0.7841,0.7817,0.78,0.7779,0.7765,0.7748,0.7745,0.7745,0.775,0.7759,0.7753,0.773,0.7745,0.7744,0.7744,0.7744,0.7744,0.8003,0.7997,0.7979,0.7965,0.7952,0.7939,0.7931,0.7915,0.7902,0.7882,0.7869,0.7854,0.7834,0.7804,0.7791,0.7778,0.7771,0.777,0.777,0.777,0.7772,0.7762,0.7774,0.7774,0.7774,0.7774,0.7774,0,0.8019,0.8006,0.7995,0.7975,0.7964,0.7952,0.7935,0.7926,0.7914,0.7897,0.7883,0.7865,0.7849,0.7826,0.7808,0.7801,0.7793,0.7797,0.7797,0.7793,0.7779,0.7781,0.7804,0.7804,0.7804,0.7804,0.7804,0.7804,0.8026,0.8017,0.8006,0.7989,0.7976,0.7962,0.7953,0.7941,0.7927,0.7908,0.7895,0.7882,0.7862,0.7842,0.7826,0.782,0.7813,0.7819,0.7811,0.7797,0.7795,0.7792,0.7794,0.7819,0.7819,0.7826,0.7826,0.7826]},{"header":{"parameterUnit":"m.s-1","parameterCategory":1,"la1":30.2991,"la2":30.254,"lo1":-89.0895,"lo2":-89.0444,"dy":0.0017,"dx":0.0017,"nx":28,"ny":28,"refTime":"2024-09-01T21:00:00:Z","depth":0,"parameterNumber":3,"parameterNumberName":"V-component_of_WINDS"},"data":[0,0,0,0,0,0,0,0,0,0,0,0,0,0,0,0,0,0,0,0,0,0,0,0,0,0,0,0,0,0,0,0,0,0,0,0,0,0,0,0,0,0,0,0,0,0,0,0,0,0,0,0,0,0,0,0,0,0,-2.8645,-2.8646,0,-2.8769,-2.8771,-2.8772,-2.8766,-2.8764,-2.8762,-2.876,-2.8886,-2.8891,-2.8896,0,0,0,0,0,0,0,0,0,0,0,0,0,-2.8399,-2.8404,-2.8644,-2.8646,-2.8648,-2.8769,-2.8771,-2.8772,-2.8766,-2.8764,-2.8762,-2.876,-2.8884,-2.889,-2.8896,0,0,0,0,0,0,0,0,0,0,0,0,0,-2.8513,-2.8405,-2.8644,-2.8659,-2.8662,-2.8769,-2.8771,-2.8773,-2.8766,-2.8764,-2.8761,-2.8759,-2.8882,-2.8889,-2.8897,-2.8996,0,0,-2.892,-2.8923,0,0,0,0,0,0,0,0,-2.8506,-2.8522,-2.8655,-2.8658,-2.8661,-2.8749,-2.873,-2.8848,-2.8767,-2.8727,-2.876,-2.8757,-2.8842,-2.8853,-2.8882,-2.9002,-2.9008,-2.892,-2.8925,-2.8928,-2.893,0,0,0,0,0,0,0,-2.8498,-2.8516,-2.8694,-2.8657,-2.8661,-2.8659,-2.8672,-2.8752,-2.8798,-2.873,-2.873,-2.8745,-2.8843,-2.8875,-2.8885,-2.901,-2.892,-2.8927,-2.8931,-2.8934,-2.9218,-2.9221,0,0,0,0,0,0,-2.8488,-2.851,-2.869,-2.8698,-2.8576,-2.8666,-2.868,-2.8724,-2.8797,-2.8806,-2.8747,-2.8744,-2.8863,-2.8876,-2.8889,-2.9012,-2.8928,-2.8935,-2.8939,-2.9215,-2.9219,-2.9222,0,0,0,0,0,0,-2.8482,-2.8504,-2.8685,-2.8604,-2.8627,-2.8673,-2.8721,-2.8728,-2.8759,-2.881,-2.8818,-2.8771,-2.8862,-2.8879,-2.897,-2.9016,-2.8939,-2.8945,-2.9212,-2.9216,-2.922,-2.9256,0,0,0,0,0,0,-2.8475,-2.8502,-2.8541,-2.8605,-2.8631,-2.8764,-2.8724,-2.8732,-2.8772,-2.877,-2.8834,-2.8843,-2.8861,-2.8959,-2.8978,-2.9025,-2.8951,-2.9208,-2.9214,-2.9219,-2.9251,-2.9262,-2.927,0,0,0,0,0,-2.8467,-2.8545,-2.8543,-2.8564,-2.8681,-2.8767,-2.8782,-2.8802,-2.8776,-2.8815,-2.8848,-2.884,-2.9008,-2.8968,-2.8989,-2.9039,-2.9205,-2.9212,-2.9219,-2.9247,-2.926,-2.927,0,0,0,0,0,0,-2.8485,-2.8554,-2.8552,-2.8654,-2.8705,-2.8766,-2.8816,-2.8815,-2.8874,-2.8869,-2.8891,-2.8905,-2.8997,-2.9027,-2.8982,-2.914,-2.9103,-2.9114,-2.9117,-2.913,-2.9139,-2.913,-2.8957,0,0,0,0,0,-2.8501,-2.8566,-2.8622,-2.8707,-2.8732,-2.877,-2.8808,-2.8819,-2.8873,-2.8894,-2.8933,-2.8985,-2.9049,-2.909,-2.9152,-2.9255,-2.9269,-2.93,-2.9309,-2.9317,-2.9327,-2.9384,-2.9398,-2.9245,-2.9245,-2.9244,0,0,-2.8534,-2.858,-2.8619,-2.8711,-2.8752,-2.8819,-2.8788,-2.8859,-2.8909,-2.8904,-2.8994,-2.9024,-2.9083,-2.9181,-2.9226,-2.9209,-2.9372,-2.9326,-2.9331,-2.9337,-2.9392,-2.9407,-2.942,-2.9249,-2.9248,-2.9248,0,0,-2.8629,-2.867,-2.8746,-2.8787,-2.885,-2.8874,-2.8892,-2.8954,-2.8974,-2.9064,-2.9062,-2.9121,-2.9231,-2.9273,-2.9309,-2.942,-2.9416,-2.9439,-2.9489,-2.9545,-2.9557,-2.9568,-2.9608,-2.9622,-2.9448,-2.9449,-2.9449,0,-2.8663,-2.8764,-2.8784,-2.8857,-2.8897,-2.8897,-2.8973,-2.9012,-2.9091,-2.9119,-2.9099,-2.9237,-2.9276,-2.9384,-2.9412,-2.944,-2.9461,-2.9432,-2.9554,-2.9565,-2.9575,-2.9614,-2.9629,-2.9451,-2.9451,-2.9451,-2.945,0,-2.8802,-2.8872,-2.8925,-2.9003,-2.9049,-2.9123,-2.9154,-2.9198,-2.9205,-2.9232,-2.9323,-2.937,-2.9442,-2.9468,-2.9475,-2.9577,-2.9565,-2.9549,-2.9512,-2.9592,-2.9629,-2.9644,-2.9455,-2.9454,-2.9453,-2.9452,0,0,-2.8914,-2.9001,-2.9021,-2.9056,-2.9125,-2.9179,-2.9252,-2.9323,-2.9361,-2.9415,-2.9478,-2.9571,-2.9556,-2.9597,-2.9609,-2.9657,-2.9743,-2.9635,-2.9637,-2.9655,-2.9859,-2.9872,-2.9889,-2.974,-2.9743,-2.9745,-2.9855,0,-2.9017,-2.9149,-2.9169,-2.9284,-2.9349,-2.935,-2.9414,-2.9463,-2.9489,-2.9547,-2.9576,-2.9642,-2.9618,-2.9642,-2.969,-2.9723,-2.9785,-2.9715,-2.9799,-2.9801,-2.9785,-2.9908,-2.9922,-3.0022,-2.9869,-2.9872,-2.9873,0,-2.9155,-2.9214,-2.9337,-2.9397,-2.9425,-2.9482,-2.9549,-2.9605,-2.966,-2.9676,-2.9721,-2.9727,-2.9803,-2.9762,-2.9867,-2.9819,-2.9854,-2.9875,-2.9879,-2.9889,-2.9843,-2.9922,-3.0055,-3.0071,-2.9896,-2.9894,-2.9893,0,-2.9225,-2.9335,-2.9423,-2.9453,-2.9525,-2.9566,-2.9597,-2.965,-2.9691,-2.9749,-2.9776,-2.9842,-2.9878,-2.9928,-2.9951,-2.9919,-3.0055,-3.0016,-3.007,-3.007,-3.01,-3.0098,-3.0242,-3.012,-3.012,-3.012,-3.012,0,-2.9339,-2.9414,-2.9455,-2.951,-2.9594,-2.9616,-2.9698,-2.9728,-2.9775,-2.9835,-2.9838,-2.9894,-2.9921,-2.998,-2.9999,-3.0083,-3.0099,-3.0114,-3.0118,-3.0114,-3.0113,-3.0139,-3.0133,-3.0124,-3.0123,-3.0122,-3.0122,0,-2.9432,-2.9463,-2.9559,-2.9619,-2.9636,-2.9696,-2.9747,-2.9799,-2.9825,-2.99,-2.9919,-2.996,-3.003,-3.0058,-3.0144,-3.0156,-3.0254,-3.0252,-3.0235,-3.0237,-3.029,-3.0285,-3.0457,-3.0481,-3.0342,-3.0344,-3.0345,0,-2.9504,-2.9562,-2.9629,-2.9669,-2.9703,-2.9768,-2.981,-2.9834,-2.9878,-2.9945,-2.9989,-3.006,-3.0117,-3.023,-3.0266,-3.0332,-3.0332,-3.0388,-3.0342,-3.0337,-3.0334,-3.0331,-3.0337,-3.0396,-3.0398,-3.0399,-3.04,0,-2.9628,-2.964,-2.9701,-2.9769,-2.9819,-2.9873,-2.9925,-2.9958,-2.9989,-3.0038,-3.0111,-3.0156,-3.0244,-3.0314,-3.0381,-3.0413,-3.0412,-3.0414,-3.043,-3.0427,-3.0416,-3.0424,-3.026,-3.041,-3.0409,-3.0408,-3.0408,-3.0407,-2.9713,-2.9765,-2.982,-2.9889,-2.9931,-2.9979,-3.0032,-3.0064,-3.0125,-3.02,-3.0209,-3.0287,-3.034,-3.0431,-3.0466,-3.0527,-3.0512,-3.0535,-3.0541,-3.0547,-3.0551,-3.0406,-3.0539,-3.0538,-3.0538,-3.0538,-3.0538,0,-2.9838,-2.9874,-2.9937,-3.001,-3.0064,-3.0058,-3.0115,-3.0161,-3.023,-3.028,-3.0337,-3.042,-3.0488,-3.0529,-3.0598,-3.0638,-3.0639,-3.0655,-3.0653,-3.0661,-3.056,-3.054,-3.0653,-3.0653,-3.0653,-3.0653,-3.0653,-3.0653,-2.991,-2.9998,-3.0016,-3.0124,-3.0159,-3.0236,-3.027,-3.0314,-3.0355,-3.0448,-3.0505,-3.0531,-3.0578,-3.065,-3.0712,-3.0722,-3.0747,-3.0765,-3.0774,-3.068,-3.0668,-3.0656,-3.0638,-3.077,-3.077,-3.087,-3.0871,-3.0872]}]]